COSMOS 2499 DEB, 49939

Orbit data source: Space-Track

COSMOS 2499 DEB, 49939 is space debris in LEO originally from a launch on Fri, 23 May 2014 UTC launched from the Plesetsk Missile And Space Complex (PKMTR). Debris objects in space refer to the collection of defunct objects orbiting the Earth. Examples of debris include non-operational satellites, rocket bodies, and fragments generated from explosions, collisions, or faulty payload assembly.

Loading next visibility...
Identifier
49939, 2014-028W
Orbit
LEO
Country
Flag of CISCIS
Related business
Manufacturer
TsNIIKhM
Mission
Spacecraft
Bus & Motor
Unknown
Mass
Unknown
Launch date (UTC)
2014-05-23 (12 years ago)
Launch vehicle
Unknown
Launch site
Plesetsk Missile And Space Complex (PKMTR)
Object type
Payload
Rocket body
Debris
Shape & HBR
Unknown shape, 0.1 m
Radar Cross Section
Small (<0.1 m²)

Expand to show TLE details & history
Last TLE update: 2 days ago

TLE from 2 days ago
0 COSMOS 2499 DEB
1 49939U 14028W   25348.38676003  .00001989  00000-0  65599-2 0  9997
2 49939  82.5024  19.8758 0272900  54.7239 307.9069 12.88480777193037
Epoch: 2025-12-14T09:16Z
TLE epoch observation values (Epoch: 2025-12-14T09:16:56.066Z)
Latitude
-0.00009°
Longitude
157.34177°
Altitude
1,185.094 km
Speed
7.32 km/s
True Right ascension
01h 19m 30s
True Declination
0° 00' 00"
Sunlit
Object was in daylight at epoch
Visualization orbit readout
Latitude
Unknown
Longitude
Unknown
Altitude
Unknown
Speed
Unknown
Apparent Right ascension
Unknown
Apparent Declination
Unknown
Sunlit
N/A
Visualization observer readout
Local Sidereal Time
03:22:59
Azimuth
Unknown
Elevation
Unknown
Doppler factor
Unknown
Orbital elements
Apogee altitude
1,514.511 km
Perigee altitude
1,095.174 km
Semi-major axis
7,682.98 km
Eccentricity
0.02729
Inclination
82.5024°
RAAN
19.8758°
Arg. of periapsis
54.7239°
True anomaly
305.38755°
Mean anomaly
307.9069°
Eccentric anomaly
306.65247°
Mean motion
3.22291 °/min
Orbital period
111.7 mins
BSTAR
0.0065599
Loading maneuver chart data...
Computing Atmospheric mass density...
Loading historical data...
Loading historical data...
Loading historical data...
Loading historical data...
Loading historical data...
Loading historical data...
Loading historical data...

Documentation

Showing up to 5 results
|